FW6014 Weather Reports


Display with metric or nautical units.
time (UTC)temp
F
wind
direction
speed
MPH
gust
MPH
rain 1hr
in
rain 24hr
in
rain mn
in
humidity
%
barometer
mb
20260903075404 59 270 1.0 3.0 0.06 0.14 0.14 96 1018.5
20260903074902 59 270 1.0 3.0 0.07 0.14 0.14 96 1018.4
20260903074637 58 270 1.0 3.0 0.07 0.14 0.14 96 1018.2
20260903074401 59 270 1.0 3.0 0.07 0.14 0.14 95 1018.3
20260903073902 59 270 1.0 3.0 0.07 0.13 0.13 95 1018.4
20260903073401 59 270 1.0 5.0 0.07 0.13 0.13 95 1018.3
20260903073153 58 270 0.0 5.0 0.07 0.13 0.13 95 1018.1
20260903072901 59 270 1.0 5.0 0.06 0.12 0.12 95 1018.3
20260903072403 59 270 1.0 4.0 0.06 0.12 0.12 95 1018.5
20260903071902 58 270 1.0 6.0 0.06 0.12 0.12 95 1018.5
20260903071634 58 270 0.0 6.0 0.06 0.12 0.12 95 1018.2
20260903070902 58 270 2.0 7.0 0.05 0.11 0.11 95 1018.6
20260903070403 59 270 1.0 7.0 0.05 0.10 0.10 95 1018.7
20260903070143 58 270 1.0 4.0 0.05 0.10 0.10 95 1018.5
20260903065902 58 270 1.0 6.0 0.05 0.09 0.09 95 1018.7
20260903065401 58 270 2.0 6.0 0.04 0.08 0.07 95 1019.0
20260903064902 58 270 1.0 5.0 0.03 0.07 0.07 95 1019.0
20260903064542 58 270 1.0 4.0 0.03 0.07 0.07 95 1018.8
20260903064402 58 270 1.0 4.0 0.03 0.07 0.07 95 1019.1
20260903063902 58 270 1.0 4.0 0.02 0.06 0.06 95 1019.1
20260903063401 58 270 0.0 3.0 0.03 0.06 0.06 95 1019.3
20260903063136 58 270 0.0 2.0 0.03 0.06 0.06 95 1019.0
20260903062902 58 270 1.0 2.0 0.03 0.06 0.06 95 1019.3
20260903062402 58 270 1.0 3.0 0.03 0.06 0.06 95 1019.3
20260903061902 58 270 1.0 3.0 0.03 0.06 0.06 95 1019.4
20260903061533 58 270 0.0 4.0 0.04 0.06 0.06 95 1019.2
20260903061401 58 270 0.0 4.0 0.04 0.06 0.06 95 1019.4
20260903060401 58 270 1.0 5.0 0.03 0.05 0.05 95 1019.4
20260903060117 58 270 0.0 4.0 0.04 0.05 0.05 95 1019.3
20260903055902 58 270 1.0 5.0 0.03 0.04 0.04 95 1019.6
20260903054902 58 270 0.0 2.0 0.03 0.04 0.04 94 1019.8
20260903054516 58 270 0.0 2.0 0.04 0.04 0.04 94 1019.5
20260903054359 58 270 0.0 2.0 0.04 0.04 0.04 94 1019.8
20260903053849 58 270 0.0 3.0 0.04 0.04 0.04 94 1019.8
20260903053102 58 270 0.0 6.0 0.03 0.03 0.03 94 1019.6
20260903052838 58 270 1.0 6.0 0.03 0.03 0.03 94 1019.8
20260903052338 58 270 1.0 3.0 0.03 0.03 0.03 94 1019.9
20260903051839 58 270 1.0 5.0 0.03 0.03 0.02 93 1020.1
20260903051501 58 270 0.0 5.0 0.02 0.02 0.02 93 1019.9
20260903051337 58 270 1.0 5.0 0.02 0.02 0.02 93 1020.1
20260903050835 58 270 1.0 5.0 0.02 0.02 0.02 92 1020.1
20260903045832 59 270 1.0 4.0 0.01 0.01 0.01 92 1020.4
20260903045332 59 270 1.0 4.0 0.01 0.01 0.01 92 1020.5
20260903044831 59 270 1.0 4.0 0.01 0.01 0.01 91 1020.4
20260903044502 58 270 1.0 4.0 0.00 0.00 0.00 91 1020.2
20260903044330 59 270 1.0 4.0 0.00 0.00 0.00 90 1020.4
20260903043829 59 270 0.0 5.0 0.00 0.00 0.00 91 1020.3
20260903043329 59 270 0.0 5.0 0.00 0.00 0.00 91 1020.4
20260903043101 59 270 0.0 5.0 0.00 0.00 0.00 91 1020.2
20260903042829 59 270 0.0 4.0 0.00 0.00 0.00 91 1020.4
20260903042330 59 270 1.0 4.0 0.00 0.00 0.00 90 1020.4
20260903041831 59 270 1.0 5.0 0.00 0.00 0.00 91 1020.4
20260903041503 59 270 1.0 5.0 0.00 0.00 0.00 90 1020.3
20260903041330 59 270 1.0 5.0 0.00 0.00 0.00 90 1020.5
20260903040831 60 270 1.0 3.0 0.00 0.00 0.00 90 1020.6
20260903040330 60 270 1.0 3.0 0.00 0.00 0.00 90 1020.6
20260903040056 59 270 0.0 3.0 0.00 0.00 0.00 90 1020.4
20260903035830 60 270 1.0 5.0 0.00 0.00 0.00 90 1020.7
20260903035329 60 270 2.0 5.0 0.00 0.00 0.00 89 1020.7
20260903034830 60 270 2.0 6.0 0.00 0.00 0.00 89 1020.9
20260903034648 60 270 1.0 6.0 0.00 0.00 0.00 89 1020.7
20260903034331 60 270 2.0 6.0 0.00 0.00 0.00 89 1021.0
20260903033829 60 270 2.0 6.0 0.00 0.00 0.00 89 1021.0
20260903033328 60 270 2.0 6.0 0.00 0.00 0.00 89 1020.9
20260903033043 59 270 1.0 6.0 0.00 0.00 0.00 89 1020.8
20260903032829 60 270 1.0 6.0 0.00 0.00 0.00 89 1021.0
20260903032330 60 270 1.0 7.0 0.00 0.00 0.00 89 1020.9
20260903031641 59 270 1.0 7.0 0.00 0.00 0.00 89 1020.8
20260903031330 60 270 1.0 6.0 0.00 0.00 0.00 89 1021.1
20260903030831 60 270 1.0 4.0 0.00 0.00 0.00 89 1021.1
20260903030330 60 270 1.0 3.0 0.00 0.00 0.00 89 1021.2
20260903030039 59 270 0.0 3.0 0.00 0.00 0.00 89 1021.1
20260903025829 60 270 0.0 3.0 0.00 0.00 0.00 89 1021.2
20260903025328 60 270 0.0 2.0 0.00 0.00 0.00 88 1021.2
20260903024831 60 270 0.0 3.0 0.00 0.00 0.00 88 1021.3
20260903024638 60 270 0.0 3.0 0.00 0.00 0.00 88 1021.1
20260903024330 60 270 0.0 3.0 0.00 0.00 0.00 88 1021.2
20260903023829 60 270 0.0 5.0 0.00 0.00 0.00 87 1021.3
20260903023034 60 270 1.0 5.0 0.00 0.00 0.00 87 1021.0
20260903022829 60 270 0.0 3.0 0.00 0.00 0.00 87 1021.3
20260903022329 60 270 0.0 3.0 0.00 0.00 0.00 87 1021.5
20260903021632 60 270 0.0 1.0 0.00 0.00 0.00 87 1021.5
20260903021330 60 270 0.0 2.0 0.00 0.00 0.00 87 1021.8
20260903020330 60 270 0.0 1.0 0.00 0.00 0.00 87 1022.0
20260903020105 60 270 0.0 1.0 0.00 0.00 0.00 88 1021.7
20260903015323 60 270 0.0 1.0 0.00 0.00 0.00 88 1021.9
20260903014817 60 270 0.0 1.0 0.00 0.00 0.00 87 1021.8
20260903014626 60 270 0.0 1.0 0.00 0.00 0.00 88 1021.4
20260903014315 60 270 0.0 1.0 0.00 0.00 0.00 87 1021.5
20260903013312 60 270 0.0 2.0 0.00 0.00 0.00 88 1021.4
20260903013004 60 270 0.0 2.0 0.00 0.00 0.00 89 1021.1
20260903012811 61 270 0.0 2.0 0.00 0.00 0.00 89 1021.3
20260903012310 61 270 0.0 2.0 0.00 0.00 0.00 88 1021.2
20260903011809 61 270 0.0 1.0 0.00 0.00 0.00 87 1021.2
20260903011620 60 270 0.0 1.0 0.00 0.00 0.00 87 1021.0
20260903011310 61 270 0.0 1.0 0.00 0.00 0.00 87 1021.3
20260903010809 61 270 0.0 1.0 0.00 0.00 0.00 87 1021.4
20260903010309 61 270 0.0 2.0 0.00 0.00 0.00 87 1021.5
20260903010158 60 270 0.0 2.0 0.00 0.00 0.00 87 1021.3
20260903005809 61 270 0.0 2.0 0.00 0.00 0.00 87 1021.8
20260903005309 61 270 0.0 1.0 0.00 0.00 0.00 87 1021.8
20260903004809 61 270 0.0 1.0 0.00 0.00 0.00 86 1021.4
20260903004605 61 270 0.0 1.0 0.00 0.00 0.00 87 1021.1
20260903004308 61 270 0.0 1.0 0.00 0.00 0.00 86 1021.5
20260903003809 61 270 0.0 2.0 0.00 0.00 0.00 86 1021.5
20260903003309 61 270 0.0 3.0 0.00 0.00 0.00 86 1021.8
20260903003154 61 270 0.0 3.0 0.00 0.00 0.00 87 1021.5
20260903002807 61 270 0.0 3.0 0.00 0.00 0.00 86 1021.6
20260903002306 61 270 0.0 1.0 0.00 0.00 0.00 86 1021.5
20260903001807 61 270 0.0 1.0 0.00 0.00 0.00 86 1021.5
20260903001601 61 270 0.0 1.0 0.00 0.00 0.00 86 1021.4
20260903001303 61 270 0.0 2.0 0.00 0.00 0.00 85 1021.6
20260903000801 62 270 0.0 4.0 0.00 0.00 0.00 85 1021.6
20260903000303 62 270 0.0 4.0 0.00 0.00 0.00 85 1021.6
20260903000035 61 270 0.0 2.0 0.00 0.00 0.00 84 1021.4
20260902235305 62 270 0.0 2.0 0.00 0.00 0.00 84 1021.6
20260902234800 62 270 0.0 2.0 0.00 0.00 0.00 83 1021.8
20260902234551 61 270 0.0 2.0 0.00 0.00 0.00 83 1021.4
20260902234302 62 270 0.0 2.0 0.00 0.00 0.00 83 1021.6
20260902233301 62 270 1.0 4.0 0.00 0.00 0.00 82 1021.9
20260902233149 62 270 0.0 4.0 0.00 0.00 0.00 82 1021.5
20260902232800 62 270 1.0 4.0 0.00 0.00 0.00 81 1022.0
20260902232301 62 270 1.0 4.0 0.00 0.00 0.00 81 1022.1
20260902231800 62 270 0.0 4.0 0.00 0.00 0.00 81 1022.2
20260902231542 62 270 0.0 3.0 0.00 0.00 0.00 81 1021.9
20260902231302 62 270 0.0 2.0 0.00 0.00 0.00 81 1022.3
20260902230802 62 270 1.0 3.0 0.00 0.00 0.00 80 1022.3
20260902230131 62 270 0.0 4.0 0.00 0.00 0.00 79 1022.0
20260902225801 62 270 1.0 5.0 0.00 0.00 0.00 79 1022.4
20260902225301 62 270 1.0 5.0 0.00 0.00 0.00 79 1022.4
20260902224801 63 270 0.0 3.0 0.00 0.00 0.00 79 1022.7
20260902224531 62 270 0.0 3.0 0.00 0.00 0.00 80 1022.4
20260902224302 63 270 0.0 3.0 0.00 0.00 0.00 80 1022.7
20260902223802 63 270 0.0 2.0 0.00 0.00 0.00 79 1022.6
20260902223038 63 270 0.0 2.0 0.00 0.00 0.00 80 1022.2
20260902222301 63 270 0.0 2.0 0.00 0.00 0.00 80 1022.7
20260902221528 63 270 0.0 1.0 0.00 0.00 0.00 80 1022.3
20260902221301 63 270 0.0 1.0 0.00 0.00 0.00 81 1022.7
20260902220802 63 270 0.0 2.0 0.00 0.00 0.00 81 1023.0
20260902220119 63 270 0.0 1.0 0.00 0.00 0.00 80 1022.6
20260902215803 64 270 0.0 2.0 0.00 0.00 0.00 81 1022.8
20260902215306 64 270 0.0 3.0 0.00 0.00 0.00 79 1022.9
20260902214803 64 270 0.0 3.0 0.00 0.00 0.00 81 1022.7
20260902214517 63 270 0.0 3.0 0.00 0.00 0.00 80 1022.3
20260902214300 64 270 0.0 1.0 0.00 0.00 0.00 82 1022.6
20260902213801 64 270 0.0 1.0 0.00 0.00 0.00 81 1022.7
20260902213301 64 270 0.0 0.0 0.00 0.00 0.00 82 1022.6
20260902213104 64 270 0.0 0.0 0.00 0.00 0.00 82 1022.4
20260902212802 64 270 0.0 0.0 0.00 0.00 0.00 83 1022.8
20260902212301 64 270 0.0 1.0 0.00 0.00 0.00 81 1022.8
20260902211501 63 270 0.0 1.0 0.00 0.00 0.00 80 1022.6
20260902211302 64 270 0.0 1.0 0.00 0.00 0.00 80 1023.1
20260902210800 64 270 0.0 1.0 0.00 0.00 0.00 81 1023.1
20260902210301 64 270 0.0 2.0 0.00 0.00 0.00 78 1023.3
20260902210029 64 270 0.0 3.0 0.00 0.00 0.00 79 1022.8
20260902205301 64 270 1.0 4.0 0.00 0.00 0.00 78 1023.3
20260902204801 64 270 0.0 4.0 0.00 0.00 0.00 78 1023.3
20260902204505 64 270 0.0 1.0 0.00 0.00 0.00 83 1022.9
20260902204302 65 270 0.0 1.0 0.00 0.00 0.00 81 1023.3
20260902203800 65 270 0.0 1.0 0.00 0.00 0.00 83 1023.4
20260902203303 65 270 0.0 1.0 0.00 0.00 0.00 82 1023.5
20260902203028 64 270 0.0 2.0 0.00 0.00 0.00 82 1023.1
20260902202306 65 270 0.0 2.0 0.00 0.00 0.00 81 1023.5
20260902201802 65 270 0.0 2.0 0.00 0.00 0.00 81 1023.5
20260902201502 65 270 0.0 2.0 0.00 0.00 0.00 80 1023.1
20260902201300 65 270 0.0 2.0 0.00 0.00 0.00 81 1023.6
20260902200802 65 270 0.0 2.0 0.00 0.00 0.00 82 1023.5
20260902200301 65 270 0.0 4.0 0.00 0.00 0.00 82 1023.6
20260902195803 66 270 1.0 4.0 0.00 0.00 0.00 79 1023.5
20260902195306 66 270 0.0 2.0 0.00 0.00 0.00 79 1023.5
20260902194803 66 270 0.0 3.0 0.00 0.00 0.00 79 1023.5
20260902194659 66 270 0.0 3.0 0.00 0.00 0.00 80 1023.1
20260902194302 66 270 1.0 4.0 0.00 0.00 0.00 78 1023.5
20260902193802 66 270 0.0 4.0 0.00 0.00 0.00 79 1023.5
20260902193301 66 270 1.0 4.0 0.00 0.00 0.00 79 1023.5
20260902193055 66 270 0.0 4.0 0.00 0.00 0.00 78 1023.2
20260902193025 66 270 0.0 4.0 0.00 0.00 0.00 77 1023.3
20260902192302 66 270 1.0 3.0 0.00 0.00 0.00 78 1023.7
20260902191802 67 270 0.0 2.0 0.00 0.00 0.00 79 1023.6
20260902191541 66 270 0.0 2.0 0.00 0.00 0.00 79 1023.3
20260902190801 66 270 0.0 2.0 0.00 0.00 0.00 80 1023.7
20260902190301 66 270 0.0 3.0 0.00 0.00 0.00 80 1023.8
20260902190029 66 270 0.0 3.0 0.00 0.00 0.00 80 1023.5
20260902185801 66 270 0.0 3.0 0.00 0.00 0.00 79 1023.7
20260902185301 66 270 0.0 2.0 0.00 0.00 0.00 80 1023.8
20260902184802 66 270 1.0 4.0 0.00 0.00 0.00 80 1023.9
20260902184631 65 270 0.0 4.0 0.00 0.00 0.00 79 1023.4
20260902184301 65 270 1.0 4.0 0.00 0.00 0.00 79 1023.8
20260902183803 65 270 1.0 4.0 0.00 0.00 0.00 79 1023.9
20260902183302 65 270 0.0 3.0 0.00 0.00 0.00 81 1024.1
20260902183030 65 270 0.0 4.0 0.00 0.00 0.00 82 1023.7
20260902182802 65 270 1.0 5.0 0.00 0.00 0.00 83 1024.1
20260902182306 65 270 1.0 5.0 0.00 0.00 0.00 82 1024.1
20260902181530 64 270 0.0 4.0 0.00 0.00 0.00 82 1023.7
20260902180802 65 270 1.0 5.0 0.00 0.00 0.00 84 1024.1
20260902180301 65 270 0.0 5.0 0.00 0.00 0.00 83 1024.1
20260902180008 64 270 0.0 3.0 0.00 0.00 0.00 83 1023.6
20260902175802 65 270 1.0 3.0 0.00 0.00 0.00 84 1024.0
20260902175301 65 270 0.0 3.0 0.00 0.00 0.00 83 1024.0
20260902174605 64 270 0.0 1.0 0.00 0.00 0.00 85 1023.8
20260902174302 65 270 0.0 1.0 0.00 0.00 0.00 85 1024.2
20260902173302 65 270 0.0 2.0 0.00 0.00 0.00 84 1024.1
20260902173002 64 270 0.0 0.0 0.00 0.00 0.00 86 1023.7
20260902172802 65 270 0.0 1.0 0.00 0.00 0.00 86 1024.1
20260902172301 65 270 0.0 1.0 0.00 0.00 0.00 84 1024.1
20260902171800 65 270 0.0 1.0 0.00 0.00 0.00 84 1024.0
20260902171604 64 270 0.0 1.0 0.00 0.00 0.00 83 1023.6
20260902171301 65 270 0.0 1.0 0.00 0.00 0.00 84 1024.0
20260902170259 65 270 0.0 1.0 0.00 0.00 0.00 83 1023.9
20260902170002 64 270 0.0 2.0 0.00 0.00 0.00 83 1023.6
20260902165758 65 270 0.0 2.0 0.00 0.00 0.00 83 1024.0
20260902165258 65 270 0.0 3.0 0.00 0.00 0.00 82 1024.0
20260902164609 65 270 0.0 3.0 0.00 0.00 0.00 82 1023.6
20260902164252 65 270 0.0 3.0 0.00 0.00 0.00 82 1024.0
20260902163745 65 270 0.0 3.0 0.00 0.00 0.00 81 1023.9
20260902163238 65 270 0.0 3.0 0.00 0.00 0.00 82 1024.0
20260902163003 65 270 0.0 3.0 0.00 0.00 0.00 81 1023.7
20260902162739 65 270 0.0 3.0 0.00 0.00 0.00 81 1024.2
20260902162239 65 270 0.0 1.0 0.00 0.00 0.00 82 1024.4
20260902161740 65 270 0.0 2.0 0.00 0.00 0.00 82 1024.5
20260902161605 65 270 0.0 2.0 0.00 0.00 0.00 82 1024.1
20260902161236 65 270 0.0 2.0 0.00 0.00 0.00 81 1024.5
20260902160738 65 270 0.0 3.0 0.00 0.00 0.00 82 1024.5
20260902160235 65 270 0.0 3.0 0.00 0.00 0.00 81 1024.6
20260902160157 64 270 0.0 3.0 0.00 0.00 0.00 82 1024.2
20260902155736 65 270 1.0 3.0 0.00 0.00 0.00 82 1024.6
20260902155233 65 270 1.0 4.0 0.00 0.00 0.00 81 1024.6
20260902154554 64 270 0.0 5.0 0.00 0.00 0.00 82 1024.3
20260902154501 64 270 0.0 5.0 0.00 0.00 0.00 83 1024.3
20260902153732 65 270 1.0 4.0 0.00 0.00 0.00 81 1024.7
20260902153150 64 270 0.0 5.0 0.00 0.00 0.00 81 1024.3
20260902152728 65 270 1.0 5.0 0.00 0.00 0.00 82 1024.6
20260902152229 64 270 1.0 5.0 0.00 0.00 0.00 82 1024.6
20260902151731 65 270 1.0 6.0 0.00 0.00 0.00 83 1024.6
20260902151553 64 270 1.0 6.0 0.00 0.00 0.00 81 1024.2
20260902151230 65 270 1.0 6.0 0.00 0.00 0.00 81 1024.5
20260902150728 65 270 1.0 5.0 0.00 0.00 0.00 84 1024.4
20260902150148 64 270 1.0 4.0 0.00 0.00 0.00 83 1024.0
20260902145729 64 270 1.0 5.0 0.00 0.00 0.00 84 1024.4
20260902145231 64 270 1.0 6.0 0.00 0.00 0.00 85 1024.4
20260902144729 63 270 1.0 6.0 0.00 0.00 0.00 87 1024.3
20260902144549 62 270 0.0 3.0 0.00 0.00 0.00 88 1024.0
20260902144230 62 270 1.0 4.0 0.00 0.00 0.00 88 1024.4
20260902143729 62 270 2.0 4.0 0.00 0.00 0.00 89 1024.4
20260902143230 62 270 1.0 4.0 0.00 0.00 0.00 89 1024.5
20260902143143 62 270 2.0 4.0 0.00 0.00 0.00 89 1024.1
20260902142731 63 270 1.0 4.0 0.00 0.00 0.00 89 1024.5
20260902142230 63 270 1.0 4.0 0.00 0.00 0.00 89 1024.4
20260902141731 63 270 1.0 5.0 0.00 0.00 0.00 88 1024.4
20260902141542 62 270 1.0 5.0 0.00 0.00 0.00 88 1024.0
20260902141230 63 270 1.0 5.0 0.00 0.00 0.00 88 1024.3
20260902140730 63 270 0.0 3.0 0.00 0.00 0.00 89 1024.3
20260902140229 63 270 0.0 2.0 0.00 0.00 0.00 88 1024.3
20260902140139 63 270 0.0 2.0 0.00 0.00 0.00 88 1023.9
20260902135729 63 270 0.0 3.0 0.00 0.00 0.00 88 1024.3
20260902135228 63 270 1.0 6.0 0.00 0.00 0.00 89 1024.2
20260902134730 62 270 1.0 6.0 0.00 0.00 0.00 88 1024.2
20260902134540 62 270 0.0 6.0 0.00 0.00 0.00 89 1023.7
20260902134228 62 270 1.0 5.0 0.00 0.00 0.00 88 1024.0
20260902133729 63 270 0.0 2.0 0.00 0.00 0.00 90 1024.1
20260902133229 62 270 0.0 2.0 0.00 0.00 0.00 90 1024.0
20260902133143 62 270 0.0 2.0 0.00 0.00 0.00 90 1023.7
20260902132729 62 270 0.0 2.0 0.00 0.00 0.00 90 1024.0
20260902132230 62 270 0.0 2.0 0.00 0.00 0.00 90 1024.0
20260902131729 62 270 0.0 2.0 0.00 0.00 0.00 91 1024.1
20260902131538 61 270 0.0 2.0 0.00 0.00 0.00 92 1023.8
20260902131231 62 270 0.0 2.0 0.00 0.00 0.00 91 1024.1
20260902130231 61 270 0.0 2.0 0.00 0.00 0.00 92 1024.1
20260902130126 61 270 0.0 2.0 0.00 0.00 0.00 92 1023.7
20260902125730 61 270 0.0 3.0 0.00 0.00 0.00 92 1024.2
20260902125231 61 270 0.0 3.0 0.00 0.00 0.00 92 1024.1
20260902124729 61 270 0.0 3.0 0.00 0.00 0.00 93 1024.2
20260902124514 61 270 0.0 3.0 0.00 0.00 0.00 93 1023.8
20260902124229 61 270 1.0 3.0 0.00 0.00 0.00 93 1024.1
20260902123730 61 270 1.0 3.0 0.00 0.00 0.00 92 1024.0
20260902123229 61 270 0.0 2.0 0.00 0.00 0.00 93 1023.9
20260902123105 61 270 0.0 2.0 0.00 0.00 0.00 93 1023.6
20260902122729 61 270 0.0 2.0 0.00 0.00 0.00 93 1023.9
20260902122231 61 270 0.0 2.0 0.00 0.00 0.00 93 1023.9
20260902121728 60 270 0.0 2.0 0.00 0.00 0.00 93 1024.0
20260902121516 60 270 0.0 2.0 0.00 0.00 0.00 94 1023.8
20260902120731 60 270 0.0 0.0 0.00 0.00 0.00 95 1024.2
20260902120230 60 270 0.0 0.0 0.00 0.00 0.00 95 1024.4
20260902120054 60 270 0.0 0.0 0.00 0.00 0.00 95 1024.1
20260902115731 60 270 0.0 0.0 0.00 0.00 0.00 95 1024.4
20260902115229 60 270 0.0 0.0 0.00 0.00 0.00 95 1024.5
20260902114730 60 270 0.0 0.0 0.00 0.00 0.00 95 1024.3
20260902114644 60 270 0.0 0.0 0.00 0.00 0.00 95 1024.0
20260902114230 60 270 0.0 0.0 0.00 0.00 0.00 95 1024.2
20260902113730 60 270 0.0 0.0 0.00 0.00 0.00 96 1024.3
20260902113228 60 270 0.0 0.0 0.00 0.00 0.00 95 1024.2
20260902113049 59 270 0.0 0.0 0.00 0.00 0.00 96 1023.9
20260902112731 60 270 0.0 0.0 0.00 0.00 0.00 96 1024.3
20260902112230 59 270 0.0 0.0 0.00 0.00 0.00 96 1024.2
20260902111731 59 270 0.0 0.0 0.00 0.00 0.00 96 1024.3
20260902111635 59 270 0.0 0.0 0.00 0.00 0.00 96 1023.9
20260902111230 59 270 0.0 0.0 0.00 0.00 0.00 96 1024.1
20260902110228 59 270 0.0 0.0 0.00 0.00 0.00 96 1024.1
20260902110039 58 270 0.0 0.0 0.00 0.00 0.00 96 1023.7
20260902105728 59 270 0.0 0.0 0.00 0.00 0.00 96 1024.0
20260902105230 59 270 0.0 0.0 0.00 0.00 0.00 96 1023.9
20260902104729 58 270 0.0 0.0 0.00 0.00 0.00 96 1023.9
20260902104629 58 270 0.0 0.0 0.00 0.00 0.00 96 1023.7
20260902104230 58 270 0.0 0.0 0.00 0.00 0.00 96 1023.8
20260902103229 59 270 0.0 0.0 0.00 0.00 0.00 96 1023.5
20260902103011 58 270 0.0 0.0 0.00 0.00 0.00 96 1023.2
20260902102213 59 270 0.0 0.0 0.00 0.00 0.00 96 1023.6
20260902101707 59 270 0.0 0.0 0.00 0.00 0.00 96 1023.6
20260902101606 58 270 0.0 0.0 0.00 0.00 0.00 96 1023.4
20260902101208 59 270 0.0 0.0 0.00 0.00 0.00 96 1023.6
20260902100704 59 270 0.0 0.0 0.00 0.00 0.00 96 1023.6
20260902100202 59 270 0.0 0.0 0.00 0.00 0.00 96 1023.5
20260902100154 58 270 0.0 0.0 0.00 0.00 0.00 96 1023.2
20260902095702 59 270 0.0 0.0 0.00 0.00 0.00 96 1023.5
20260902095202 58 270 0.0 0.0 0.00 0.00 0.00 96 1023.5
20260902094702 58 270 0.0 0.0 0.00 0.00 0.00 96 1023.4
20260902094539 58 270 0.0 0.0 0.00 0.00 0.00 96 1023.2
20260902094202 58 270 0.0 0.0 0.00 0.00 0.00 95 1023.3
20260902093702 58 270 0.0 0.0 0.00 0.00 0.00 95 1023.2
20260902093201 58 270 0.0 0.0 0.00 0.00 0.00 95 1023.4
20260902093138 58 270 0.0 0.0 0.00 0.00 0.00 95 1023.1
20260902092701 59 270 0.0 0.0 0.00 0.00 0.00 96 1023.4
20260902092201 59 270 0.0 1.0 0.00 0.00 0.00 96 1023.4
20260902091701 59 270 0.0 1.0 0.00 0.00 0.00 97 1023.4
20260902091530 58 270 0.0 1.0 0.00 0.00 0.00 97 1023.1
20260902091201 59 270 0.0 2.0 0.00 0.00 0.00 97 1023.4
20260902090157 58 270 0.0 0.0 0.00 0.00 0.00 97 1023.4
20260902090118 58 270 0.0 0.0 0.00 0.00 0.00 97 1023.2
20260902085651 58 270 0.0 0.0 0.00 0.00 0.00 97 1023.6
20260902085145 58 270 0.0 0.0 0.00 0.00 0.00 96 1023.6
20260902084638 58 270 0.0 0.0 0.00 0.00 0.00 96 1023.5
20260902084505 57 270 0.0 0.0 0.00 0.00 0.00 96 1023.3
20260902084140 58 270 0.0 0.0 0.00 0.00 0.00 96 1023.6
20260902083638 58 270 0.0 0.0 0.00 0.00 0.00 96 1023.5
20260902083111 57 270 0.0 0.0 0.00 0.00 0.00 96 1023.2
20260902082639 57 270 0.0 0.0 0.00 0.00 0.00 96 1023.3
20260902082136 57 270 0.0 0.0 0.00 0.00 0.00 96 1023.3
20260902081654 57 270 0.0 0.0 0.00 0.00 0.00 96 1023.1
20260902081637 57 270 0.0 0.0 0.00 0.00 0.00 96 1023.3
20260902081138 57 270 0.0 0.0 0.00 0.00 0.00 96 1023.4
20260902080636 58 270 0.0 0.0 0.00 0.00 0.00 95 1023.4
20260902080138 58 270 0.0 0.0 0.00 0.00 0.00 95 1023.3
20260902080056 57 270 0.0 0.0 0.00 0.00 0.00 95 1023.1